Hourly Weather Acqualagna

Today, 29 July, Thursday

Time Temperature Precipitation Wind Pressure Humidity
00:00 +23°C° 0 mm 2 mps 730 mmHg 46%
01:00 +21°C° 0 mm 2 mps 730 mmHg 49%
02:00 +21°C° 0 mm 2 mps 730 mmHg 49%
03:00 +21°C° 0 mm 2 mps 729 mmHg 50%
04:00 +20°C° 0 mm 2 mps 729 mmHg 51%
05:00 +23°C° 0 mm 2 mps 730 mmHg 47%
06:00 +24°C° 0 mm 1 mps 730 mmHg 43%
07:00 +26°C° 0 mm 1 mps 730 mmHg 39%
08:00 +28°C° 0 mm 1 mps 730 mmHg 34%
09:00 +31°C° 0 mm 2 mps 730 mmHg 28%
10:00 +34°C° 0 mm 2 mps 730 mmHg 23%
11:00 +35°C° 0 mm 3 mps 730 mmHg 24%
12:00 +36°C° 0 mm 3 mps 730 mmHg 25%
13:00 +37°C° 0 mm 4 mps 729 mmHg 26%
14:00 +36°C° 0 mm 4 mps 729 mmHg 27%
15:00 +36°C° 0 mm 4 mps 729 mmHg 28%
16:00 +36°C° 0 mm 4 mps 728 mmHg 29%
17:00 +34°C° 0 mm 3 mps 728 mmHg 35%
18:00 +31°C° 0 mm 3 mps 728 mmHg 40%
19:00 +29°C° 0 mm 2 mps 728 mmHg 45%
20:00 +28°C° 0 mm 2 mps 728 mmHg 49%
21:00 +26°C° 0 mm 2 mps 728 mmHg 53%
22:00 +25°C° 0 mm 2 mps 729 mmHg 57%
23:00 +24°C° 0 mm 2 mps 728 mmHg 60%

Tomorrow, 30 July, Friday

Time Temperature Precipitation Wind Pressure Humidity
00:00 +23°C° 0 mm 2 mps 728 mmHg 62%
01:00 +23°C° 0 mm 2 mps 728 mmHg 65%
02:00 +21°C° 0 mm 2 mps 728 mmHg 67%
03:00 +21°C° 0 mm 2 mps 728 mmHg 69%
04:00 +20°C° 0 mm 2 mps 728 mmHg 72%
05:00 +23°C° 0 mm 2 mps 728 mmHg 66%
06:00 +24°C° 0 mm 2 mps 729 mmHg 61%
07:00 +26°C° 0 mm 2 mps 729 mmHg 55%
08:00 +29°C° 0 mm 2 mps 729 mmHg 46%
09:00 +31°C° 0 mm 3 mps 729 mmHg 37%
10:00 +35°C° 0 mm 4 mps 729 mmHg 28%
11:00 +36°C° 0 mm 4 mps 729 mmHg 27%
12:00 +37°C° 0 mm 4 mps 728 mmHg 25%
13:00 +39°C° 0 mm 5 mps 728 mmHg 23%
14:00 +39°C° 0 mm 5 mps 728 mmHg 23%
15:00 +39°C° 0 mm 5 mps 727 mmHg 23%
16:00 +39°C° 0 mm 5 mps 727 mmHg 23%
17:00 +36°C° 0 mm 4 mps 727 mmHg 28%
18:00 +34°C° 0 mm 3 mps 727 mmHg 32%
19:00 +31°C° 0 mm 2 mps 727 mmHg 37%
20:00 +29°C° 0 mm 2 mps 727 mmHg 41%
21:00 +27°C° 0 mm 2 mps 727 mmHg 45%
22:00 +25°C° 0 mm 2 mps 727 mmHg 49%
23:00 +25°C° 0 mm 2 mps 727 mmHg 52%

Day after tomorrow, 31 July, Saturday

Time Temperature Precipitation Wind Pressure Humidity
00:00 +24°C° 0 mm 2 mps 727 mmHg 54%
01:00 +22°C° 0 mm 3 mps 727 mmHg 57%
02:00 +22°C° 0 mm 3 mps 727 mmHg 59%
03:00 +21°C° 0 mm 2 mps 726 mmHg 61%
04:00 +21°C° 0 mm 2 mps 726 mmHg 63%
05:00 +24°C° 0 mm 2 mps 726 mmHg 57%
06:00 +25°C° 0 mm 2 mps 726 mmHg 52%
07:00 +27°C° 0 mm 2 mps 727 mmHg 47%
08:00 +29°C° 0 mm 2 mps 727 mmHg 41%
09:00 +31°C° 0 mm 3 mps 727 mmHg 35%
10:00 +34°C° 0 mm 4 mps 727 mmHg 29%
11:00 +36°C° 0 mm 4 mps 727 mmHg 26%
12:00 +37°C° 0 mm 5 mps 726 mmHg 24%
13:00 +39°C° 0 mm 5 mps 726 mmHg 21%
14:00 +39°C° 0 mm 5 mps 726 mmHg 21%
15:00 +39°C° 0 mm 5 mps 726 mmHg 21%
16:00 +40°C° 0 mm 5 mps 725 mmHg 21%
17:00 +37°C° 0 mm 4 mps 725 mmHg 25%
18:00 +35°C° 0 mm 4 mps 725 mmHg 28%
19:00 +33°C° 0 mm 4 mps 725 mmHg 32%
20:00 +30°C° 0 mm 3 mps 725 mmHg 37%
21:00 +28°C° 0 mm 3 mps 725 mmHg 41%
22:00 +25°C° 0 mm 3 mps 725 mmHg 46%
23:00 +25°C° 0 mm 3 mps 725 mmHg 50%

1 August, Sunday

Time Temperature Precipitation Wind Pressure Humidity
00:00 +24°C° 0 mm 3 mps 725 mmHg 53%
01:00 +22°C° 0 mm 3 mps 725 mmHg 57%
02:00 +22°C° 0.8 mm 3 mps 724 mmHg 63%
03:00 +21°C° 0.8 mm 4 mps 724 mmHg 70%
04:00 +21°C° 0.8 mm 5 mps 723 mmHg 76%
05:00 +22°C° 0 mm 4 mps 724 mmHg 76%
06:00 +22°C° 0 mm 4 mps 724 mmHg 77%
07:00 +22°C° 0 mm 3 mps 724 mmHg 77%
08:00 +25°C° 0 mm 4 mps 724 mmHg 70%
09:00 +26°C° 0 mm 4 mps 725 mmHg 64%
10:00 +28°C° 0 mm 5 mps 725 mmHg 57%
11:00 +30°C° 0 mm 5 mps 725 mmHg 48%
12:00 +33°C° 0 mm 5 mps 725 mmHg 38%
13:00 +35°C° 0 mm 6 mps 725 mmHg 29%
14:00 +35°C° 0 mm 6 mps 725 mmHg 28%
15:00 +34°C° 0 mm 6 mps 724 mmHg 28%
16:00 +34°C° 0 mm 7 mps 724 mmHg 28%
17:00 +32°C° 0 mm 6 mps 725 mmHg 31%
18:00 +29°C° 0 mm 5 mps 725 mmHg 34%
19:00 +27°C° 0 mm 5 mps 725 mmHg 37%
20:00 +25°C° 0 mm 4 mps 726 mmHg 42%
21:00 +22°C° 0 mm 4 mps 726 mmHg 48%
22:00 +20°C° 0 mm 3 mps 726 mmHg 53%
23:00 +20°C° 0 mm 3 mps 727 mmHg 59%

2 August, Monday

Time Temperature Precipitation Wind Pressure Humidity
00:00 +19°C° 0 mm 3 mps 727 mmHg 64%
01:00 +18°C° 0 mm 3 mps 727 mmHg 70%
02:00 +18°C° 0 mm 3 mps 727 mmHg 72%
03:00 +17°C° 0 mm 3 mps 727 mmHg 74%
04:00 +17°C° 0 mm 3 mps 727 mmHg 77%
05:00 +18°C° 0 mm 3 mps 728 mmHg 72%
06:00 +20°C° 0 mm 3 mps 728 mmHg 68%
07:00 +21°C° 0 mm 3 mps 728 mmHg 63%
08:00 +25°C° 0 mm 4 mps 729 mmHg 53%
09:00 +27°C° 0 mm 4 mps 729 mmHg 42%
10:00 +29°C° 0 mm 5 mps 729 mmHg 32%
11:00 +30°C° 0 mm 5 mps 729 mmHg 28%
12:00 +32°C° 0 mm 5 mps 729 mmHg 24%
13:00 +34°C° 0 mm 5 mps 729 mmHg 20%
14:00 +34°C° 0 mm 5 mps 729 mmHg 20%
15:00 +34°C° 0 mm 5 mps 729 mmHg 20%
16:00 +34°C° 0 mm 5 mps 729 mmHg 20%
17:00 +32°C° 0 mm 4 mps 728 mmHg 26%
18:00 +29°C° 0 mm 3 mps 728 mmHg 31%
19:00 +26°C° 0 mm 2 mps 728 mmHg 36%
20:00 +25°C° 0 mm 2 mps 728 mmHg 40%
21:00 +23°C° 0 mm 2 mps 729 mmHg 43%
22:00 +20°C° 0 mm 2 mps 729 mmHg 47%
23:00 +20°C° 0 mm 2 mps 729 mmHg 46%

3 August, Tuesday

Time Temperature Precipitation Wind Pressure Humidity
00:00 +20°C° 0 mm 2 mps 728 mmHg 46%
01:00 +20°C° 0 mm 2 mps 728 mmHg 46%
02:00 +19°C° 0 mm 2 mps 728 mmHg 50%
03:00 +19°C° 0 mm 2 mps 728 mmHg 54%
04:00 +18°C° 0 mm 2 mps 728 mmHg 58%
05:00 +19°C° 0 mm 2 mps 728 mmHg 59%
06:00 +20°C° 0 mm 2 mps 729 mmHg 61%
07:00 +20°C° 0 mm 2 mps 729 mmHg 62%
08:00 +24°C° 0.1 mm 2 mps 729 mmHg 55%
09:00 +26°C° 0.1 mm 2 mps 729 mmHg 47%
10:00 +29°C° 0.1 mm 3 mps 729 mmHg 39%
11:00 +30°C° 0 mm 3 mps 728 mmHg 36%
12:00 +32°C° 0 mm 4 mps 728 mmHg 33%
13:00 +34°C° 0 mm 5 mps 727 mmHg 30%
14:00 +33°C° 0.1 mm 5 mps 727 mmHg 34%
15:00 +32°C° 0.1 mm 4 mps 727 mmHg 38%
16:00 +30°C° 0.1 mm 3 mps 726 mmHg 42%
17:00 +28°C° 0 mm 3 mps 726 mmHg 44%
18:00 +27°C° 0 mm 3 mps 726 mmHg 45%
19:00 +26°C° 0 mm 2 mps 726 mmHg 47%
20:00 +25°C° 0 mm 2 mps 726 mmHg 51%
21:00 +23°C° 0 mm 2 mps 726 mmHg 56%
22:00 +20°C° 0 mm 2 mps 727 mmHg 60%
23:00 +20°C° 0 mm 3 mps 727 mmHg 65%
Show more

We Need Your Consent

Meteoprog and our Service Providers may store and access personal data such as cookies, device identifiers or other similar technologies on your device and process such data to personalise content and ads, as well as provide social media features and to analyse the traffic.

  • Store and/or access information on your device

    Cookies, device identifiers or other information can be stored or accessed on your device for the purposes indicated above.

  • Personalised ads and content, ad and content measurement, audience insights, and products development

    Ads and content can be personalised based on a profile. More data can be added to better personalise ads and content. Ad and content performance can be measured. Insights about the audience who saw the ads and content can be derived. Such data can be used to develop or improve user’s experience, systems and software.

By clicking ‘I Agree’ you will allow the use of indicated cookies, device identifiers, web beacons or other similar technologies. Your settings can be changed in the browser on your device.

For certain purposes, legitimate interests may be relied on, rather than consent. You can read more about this in our Privacy and Cookie Policy.